Location: Sungai Apap
(2.6167°N, 113.3833°E)
Time: 14:38:25
(UTC+00:00)

NOSS 3-2 (A) - Pass Details

Date: 25 May 2024
Orbit: 704 x 1502 km, 63.4° (Epoch: 12 April)

Event Time Altitude Azimuth Distance (km) Brightness Sun altitude
Exits shadow 19:58:35 27° 112° (ESE) 1,322 4.5 -32.3°
Drops below altitude 10° 20:02:38 10° 55° (NE) 2,174 6.2 -31.4°
Sets 20:05:17 0° 43° (NE) 3,127 7.2 -30.8°
